Location: Newark
(13.8117°N, 3.6025°W)
Time: 10:18:43
(UTC+00:00)

Vanguard 2 - Pass Details

Date: 27 August 2019
Orbit: 554 x 2937 km, 32.9° (Epoch: 18 September)

Event Time Altitude Azimuth Distance (km) Brightness Sun altitude
Rises 12:56:54 0° 310° (NW) 3,171 10.8 79.3°
Reaches altitude 10° 13:00:17 10° 336° (NNW) 2,548 10.4 78.5°
Maximum altitude 13:03:34 15° 9° (N) 2,549 10.3 77.8°
Drops below altitude 10° 13:07:37 10° 40° (NE) 3,300 10.8 76.8°
Sets 13:13:12 0° 62° (ENE) 4,864 11.5 75.5°
